Theta_e
296 294 292 293 295 295 294 292 290 291 294 291 291 291 293 294 294 295 297 298 299 301 303 303 302 303 302 302 304 307 308 309 309 307 305 303 299 300 300 297 297 296 297 299
292 288 293 297 296 295 294 291 289 292 293 291 290 290 295 295 294 297 297 297 299 300 299 300 301 301 301 302 302 304 307 309 309 308 307 306 305 303 301 298 294 294 295 297
289 291 295 293 291 290 289 289 287 289 291 289 287 285 288 292 295 296 296 298 298 299 299 299 299 300 300 300 301 302 304 307 307 308 308 305 303 301 298 297 294 293 293 295
290 293 292 291 289 289 285 290 291 290 286 281 288 279 286 288 290 293 295 295 296 296 298 299 299 298 299 300 300 301 302 304 305 307 306 303 302 300 300 298 294 291 291 292
287 288 290 289 289 291 288 290 288 288 285 282 283 280 285 287 288 290 293 294 296 296 297 299 299 300 300 299 299 299 300 301 303 304 306 304 304 304 300 295 292 290 289 291
289 291 291 290 291 291 292 288 286 285 282 274 279 279 282 285 288 291 292 294 295 295 295 297 298 298 297 297 297 298 298 299 300 302 304 305 305 301 296 294 291 288 288 288
288 288 291 292 289 290 289 284 276 273 273 274 281 279 283 288 291 291 292 293 293 294 294 295 295 295 295 295 296 296 296 297 297 297 299 304 305 301 298 295 292 289 287 287
283 281 288 291 289 287 285 285 278 272 273 276 282 278 283 289 290 291 291 291 292 292 293 293 294 294 294 294 294 295 295 295 295 295 295 297 303 301 299 296 293 291 287 287
282 282 287 289 290 291 285 282 286 281 274 275 278 281 286 287 288 288 288 289 290 290 291 292 292 293 293 293 293 294 294 293 293 294 293 293 295 298 297 295 293 290 288 287
284 280 285 288 289 289 287 289 281 280 269 271 276 278 279 283 286 287 288 288 288 289 290 291 291 291 291 292 292 292 292 293 293 292 291 292 291 292 294 292 290 289 286 286
286 283 281 286 284 284 284 283 284 283 280 276 273 276 284 285 286 287 287 287 287 288 289 289 290 290 290 290 290 291 291 291 290 290 289 289 288 289 290 290 289 287 285 285
285 283 278 280 285 286 286 285 285 279 277 279 279 279 286 286 286 286 288 287 288 289 290 291 290 289 289 289 288 289 290 289 290 289 288 287 287 287 286 286 286 285 284 284
286 277 270 276 279 282 282 284 286 285 283 280 276 279 286 286 289 290 288 289 290 289 290 291 290 289 289 288 287 288 289 290 289 287 287 286 286 285 285 285 284 284 283 283
290 282 278 274 277 280 280 281 283 284 280 281 282 283 288 290 288 289 290 290 289 289 289 289 289 289 289 288 287 287 287 288 287 286 286 286 285 285 285 284 283 283 282 282
286 276 279 281 282 282 282 281 282 280 281 278 282 281 286 288 288 287 288 289 289 288 289 289 288 288 288 288 287 287 288 288 287 285 285 285 284 284 283 282 282 281 281 281
286 280 281 278 283 281 278 281 282 282 282 282 282 282 289 291 291 289 288 286 286 287 288 288 288 287 287 288 288 287 287 287 285 286 286 286 283 282 282 282 281 281 280 280
278 278 270 271 276 274 270 277 280 281 283 282 280 285 288 287 288 289 286 286 288 287 287 287 287 288 289 289 290 289 289 287 284 285 286 285 283 282 282 282 281 281 280 279
277 268 268 267 269 260 276 279 280 280 281 283 283 285 286 287 288 287 287 287 285 286 286 287 287 287 288 289 289 290 288 285 284 283 284 284 283 283 282 281 281 281 281 279
281 279 275 269 258 271 277 279 277 278 278 281 282 284 285 285 284 284 286 286 286 287 286 287 288 288 288 287 288 287 286 284 282 283 283 284 283 282 281 280 280 281 280 279
280 284 279 262 263 261 273 278 279 279 272 281 282 282 280 281 277 280 286 285 285 286 287 287 288 288 286 286 285 284 284 282 282 283 283 283 283 282 281 280 280 281 280 280
271 275 274 273 267 267 276 278 279 266 272 280 282 283 283 281 281 283 284 282 284 285 285 286 286 286 287 286 283 283 283 281 285 283 282 281 282 281 282 281 280 280 279 279
267 264 265 263 261 264 277 277 273 278 279 282 282 282 282 282 282 282 282 282 282 282 283 284 284 285 286 284 283 283 282 285 283 281 280 280 280 280 280 279 279 279 278 278
267 269 268 269 270 276 278 279 281 280 280 280 280 282 280 279 281 282 282 282 282 282 283 284 284 285 285 283 282 282 284 283 281 278 278 277 277 278 279 278 278 277 277 277
267 265 268 269 273 277 276 278 279 281 280 281 280 280 280 280 281 281 281 282 282 282 283 283 283 283 283 284 282 282 283 282 277 277 277 276 276 276 277 278 278 278 277 277
270 271 271 270 276 277 276 278 280 281 280 280 281 280 280 279 281 281 281 281 281 282 281 281 281 282 282 283 282 281 281 278 277 277 277 276 276 276 276 277 278 277 278 279
272 273 273 273 279 278 280 279 280 279 279 280 278 279 281 280 280 281 280 281 281 281 281 280 280 280 281 281 281 281 278 276 276 276 276 276 276 275 276 275 276 281 281 281
Wind_Speed
5 8 7 7 5 5 7 5 4 1 3 2 5 7 11 7 7 10 12 11 12 14 8 8 9 7 6 6 6 7 7 8 7 5 3 2 3 2 1 1 4 3 2 2
8 7 3 6 8 9 6 6 3 1 2 3 4 12 17 9 9 14 16 15 16 10 7 7 8 8 9 8 7 6 6 8 8 6 3 3 3 2 2 1 2 3 1 1
7 1 5 6 5 7 4 6 2 3 3 1 7 8 5 5 6 6 9 8 9 12 12 9 10 12 8 9 9 7 7 7 7 7 4 3 4 2 2 2 1 1 1 1
6 4 6 6 4 3 4 1 4 2 2 2 3 7 7 4 8 6 9 8 10 9 9 8 10 10 12 13 7 7 7 7 6 7 6 6 5 4 4 3 2 2 1 2
1 2 4 3 3 3 3 1 2 2 3 3 3 3 10 5 7 5 5 7 8 9 10 12 12 13 11 8 9 7 8 7 6 7 8 7 5 3 2 2 4 3 1 2
2 0 2 3 1 3 5 3 5 4 3 3 2 4 9 3 3 6 5 6 6 6 8 8 5 5 6 6 7 6 7 6 6 6 7 9 10 6 4 4 4 3 2 2
3 2 2 2 4 3 5 5 3 6 5 4 1 1 13 8 10 6 10 11 7 8 7 4 5 5 4 7 6 6 7 7 6 6 6 6 8 8 9 7 5 5 4 3
4 3 4 1 2 4 2 4 5 4 2 4 1 6 9 5 5 7 7 7 8 7 6 5 5 5 6 7 7 7 7 7 6 6 7 6 5 5 6 7 5 5 5 4
4 4 3 3 2 1 2 2 1 5 2 2 4 7 10 4 3 7 8 9 10 10 9 6 4 5 5 7 8 10 8 7 7 8 5 6 5 5 6 7 6 5 5 4
2 0 3 5 2 4 2 5 4 3 0 5 6 6 7 6 8 7 8 9 9 7 10 8 6 5 6 6 5 7 7 10 8 7 6 5 6 5 5 4 6 6 5 6
3 3 2 1 2 6 2 0 5 2 4 4 4 7 7 6 1 8 10 9 8 8 6 5 6 7 7 5 7 7 7 8 7 7 6 6 5 6 5 5 6 7 5 6
2 4 2 5 1 1 4 6 7 5 4 5 2 10 3 2 3 5 7 4 5 5 5 6 7 6 7 7 7 8 8 9 9 7 6 7 6 6 7 7 7 6 7 6
4 2 3 9 5 2 4 3 4 3 3 15 1 12 2 5 11 12 8 9 9 7 8 7 7 7 8 7 7 8 7 10 8 8 9 9 10 9 10 9 8 8 8 9
3 2 5 6 2 1 2 1 2 5 6 10 16 22 26 16 10 11 11 9 8 9 10 8 8 7 7 7 8 8 9 9 8 7 7 9 9 10 9 8 7 7 7 8
3 2 1 4 4 2 4 2 5 3 9 9 17 14 26 18 13 7 6 8 10 11 10 10 9 9 8 8 8 8 9 10 9 10 10 13 9 8 7 7 7 7 8 8
3 2 2 4 5 4 4 4 8 13 15 18 18 30 18 23 20 14 11 8 9 9 9 9 9 9 8 9 9 8 10 11 9 13 15 12 10 10 11 9 9 9 10 9
3 4 4 6 4 5 8 12 15 16 16 8 19 26 17 17 18 16 6 7 12 7 6 7 8 8 8 8 8 11 11 6 9 12 11 11 12 14 14 12 12 13 12 10
5 5 3 4 5 4 5 2 4 8 7 10 16 17 14 15 13 8 7 8 2 4 7 9 7 8 8 6 8 10 7 7 9 10 12 13 13 13 12 12 13 13 11 13
1 4 0 2 4 9 11 9 6 6 17 11 14 16 14 9 7 9 1 4 2 7 8 11 11 12 8 8 8 8 7 7 7 13 13 12 12 12 12 13 14 12 12 11
2 6 6 3 3 9 6 5 3 2 18 14 14 12 7 0 3 7 5 3 9 9 10 11 14 13 8 9 7 7 8 6 12 12 13 11 11 13 15 15 15 12 10 13
6 4 16 9 6 10 11 10 2 7 10 2 4 7 7 7 7 6 13 9 7 9 11 12 11 12 14 10 6 8 9 9 14 7 8 9 11 13 13 13 12 12 12 11
11 11 6 3 1 14 10 4 9 11 4 5 6 6 6 7 11 14 15 13 9 11 13 11 11 13 12 8 6 10 10 14 7 7 9 9 10 10 9 12 11 12 12 13
2 9 10 13 14 7 6 7 11 5 7 3 2 6 8 12 17 20 17 13 12 11 12 10 11 16 14 9 8 12 13 8 8 7 10 9 7 9 10 11 12 10 12 12
3 5 4 4 8 24 8 7 8 8 8 7 11 13 9 18 18 16 14 15 15 14 11 11 13 16 18 12 9 13 11 8 7 10 10 7 9 10 10 9 10 11 11 12
6 9 6 8 15 13 10 13 18 16 11 13 13 9 12 10 19 18 16 18 17 15 13 11 14 16 19 16 14 10 10 7 9 9 8 8 8 10 10 11 11 12 13 15
7 9 8 11 12 11 13 8 7 10 12 14 7 13 17 12 18 18 18 16 16 18 16 14 16 16 18 17 16 13 9 8 9 9 8 8 8 8 9 9 9 22 22 23
Wind_Direction
17 73 89 105 75 107 112 99 101 284 338 253 252 280 276 231 218 230 232 231 232 231 220 194 204 201 205 222 214 203 180 166 151 150 150 141 190 173 161 104 107 64 14 360
51 58 87 85 80 86 83 96 34 335 303 209 318 274 264 212 222 217 220 224 233 239 210 202 194 196 201 206 213 212 210 178 177 176 160 152 161 158 157 170 124 101 44 325
84 42 121 89 67 79 47 107 132 209 299 71 318 294 298 289 254 277 251 244 238 232 235 223 201 201 194 208 207 205 208 192 184 179 141 94 88 103 152 207 197 169 101 281
66 346 100 89 77 108 80 284 152 148 71 275 27 287 299 320 298 249 252 233 241 228 230 219 207 204 199 208 186 201 208 202 190 172 177 181 187 185 184 163 175 160 147 264
268 73 89 73 171 127 140 108 79 74 86 21 7 69 272 338 323 335 325 253 254 244 231 228 213 213 211 175 190 191 201 202 194 187 194 196 216 190 113 135 179 157 216 249
94 334 59 143 41 68 136 96 48 50 67 32 305 112 290 288 286 325 317 295 304 296 252 241 229 185 186 171 181 189 193 207 198 197 198 206 215 171 158 171 189 179 204 261
15 6 307 162 88 31 76 63 345 1 14 224 102 133 252 274 273 260 283 301 333 333 321 265 206 194 180 189 187 179 189 221 210 215 220 219 214 189 192 187 184 170 180 218
146 267 209 167 160 174 108 133 144 252 279 279 122 235 252 225 281 270 286 292 313 333 334 296 228 201 196 199 188 193 200 220 204 211 234 238 233 206 201 189 183 185 190 184
121 284 320 65 27 77 178 163 167 95 52 28 246 291 286 330 353 7 9 18 352 344 345 322 262 220 215 212 205 204 199 217 215 218 220 234 240 218 198 193 187 177 172 175
160 306 17 349 41 35 145 161 65 9 350 285 288 271 238 309 324 347 359 356 343 343 338 336 303 256 237 230 217 212 209 217 215 210 208 219 224 226 216 187 197 190 181 176
125 122 309 94 165 181 63 105 54 125 157 213 285 260 222 219 294 346 339 349 346 342 349 335 299 277 263 241 218 217 212 215 213 207 206 216 223 223 210 201 203 194 175 176
221 120 197 232 142 111 159 180 164 159 226 232 245 261 222 286 343 296 337 339 252 248 274 269 254 260 266 251 237 231 223 216 214 203 196 208 207 202 204 205 202 179 188 183
191 340 30 343 1 20 227 196 192 76 65 246 302 262 234 358 336 303 289 317 319 322 311 299 284 266 260 257 250 247 243 240 221 199 203 204 206 203 210 207 194 188 182 182
102 139 168 190 208 44 268 302 232 198 239 281 249 283 279 282 284 289 303 312 330 317 302 288 283 277 277 254 236 229 230 223 226 222 226 228 215 214 214 207 195 188 186 187
93 186 186 269 271 269 247 280 329 304 270 251 278 270 277 296 292 285 313 303 301 297 302 307 316 303 287 282 265 247 240 224 209 209 216 224 212 207 205 193 193 184 185 196
10 237 125 286 276 313 285 278 243 260 261 258 269 269 266 282 289 301 292 285 293 301 309 318 318 312 302 284 273 259 243 237 204 216 224 220 203 197 201 201 194 191 198 191
124 129 73 252 25 321 284 204 213 241 250 242 258 269 289 295 297 302 301 293 290 314 311 309 308 298 295 291 274 269 261 236 211 226 233 224 212 207 204 195 192 197 198 194
126 94 102 260 34 270 243 185 231 240 238 233 262 274 281 278 281 289 255 245 278 298 293 304 287 287 279 271 276 272 257 224 225 228 229 221 223 224 210 198 199 202 196 196
157 118 57 252 210 306 304 272 203 201 274 244 255 270 268 291 319 292 239 153 226 259 290 283 283 276 267 276 287 288 264 231 221 234 232 225 218 217 210 209 208 203 196 195
200 227 196 86 195 231 261 230 160 139 283 224 238 257 271 230 298 275 204 288 285 277 283 288 293 298 282 284 289 292 274 228 239 239 236 225 214 214 213 208 206 202 199 201
145 205 214 210 238 279 239 247 23 111 249 214 199 223 206 211 221 269 293 282 248 264 270 273 276 273 282 286 287 281 279 253 257 246 235 222 216 217 220 214 204 199 197 201
159 150 183 100 165 274 187 113 176 217 234 224 229 237 256 264 276 282 288 289 281 274 284 278 278 279 278 265 271 276 272 272 257 234 225 222 214 210 214 209 204 200 195 199
191 179 177 179 210 227 197 205 224 217 231 254 220 236 249 269 283 287 293 290 285 282 279 273 268 285 282 266 239 260 267 265 248 233 235 220 202 206 210 203 204 200 200 200
274 194 198 72 239 246 208 252 246 248 230 248 249 263 253 273 282 285 285 286 283 286 268 272 274 276 281 272 249 241 259 256 225 238 233 218 206 206 205 204 204 204 203 205
183 143 201 258 276 287 259 235 250 264 260 260 269 256 263 261 276 278 283 286 286 286 283 272 271 273 276 279 271 251 246 232 240 241 235 219 213 208 211 210 206 208 215 209
188 177 186 232 238 229 256 242 227 244 253 259 259 283 278 258 270 279 278 279 280 282 283 280 272 271 276 276 274 265 241 210 226 237 229 217 208 207 211 210 224 225 221 220